This is the latest recevied weather packets stored in our database for station/object K9MWD. If no packets are shown the sender has not sent any weather packets the latest 10 day(s).
| Time | Temp. | Humidity | Pressure | Rain* | Wind** | Luminosity | Snow |
|---|---|---|---|---|---|---|---|
| 1788026034 | 37.22° C | 38% | 1017.5 hPa | 0 mm | - | 864 W/m² | - |
| 1788025733 | 37.22° C | 38% | 1017.7 hPa | 0 mm | - | 855 W/m² | - |
| 1788025433 | 36.67° C | 38% | 1017.8 hPa | 0 mm | - | 854 W/m² | - |
| 1788025128 | 36.67° C | 39% | 1017.7 hPa | 0 mm | - | 851 W/m² | - |
| 1788024827 | 36.67° C | 39% | 1017.8 hPa | 0 mm | - | 845 W/m² | - |
| 1788024524 | 36.11° C | 39% | 1018 hPa | 0 mm | - | 840 W/m² | - |
| 1788024223 | 35.56° C | 42% | 1017.9 hPa | 0 mm | - | 832 W/m² | - |
| 1788023919 | 35° C | 43% | 1017.9 hPa | 0 mm | - | 830 W/m² | - |
| 1788023614 | 35° C | 44% | 1018 hPa | 0 mm | - | 821 W/m² | - |
| 1788023310 | 35.56° C | 43% | 1018 hPa | 0 mm | - | 813 W/m² | - |
| 1788023004 | 35° C | 44% | 1018.1 hPa | 0 mm | - | 805 W/m² | - |
| 1788022702 | 35.56° C | 43% | 1018.1 hPa | 0 mm | - | 800 W/m² | - |
| 1788022400 | 35.56° C | 43% | 1018.1 hPa | 0 mm | - | 787 W/m² | - |
| 1788022095 | 35.56° C | 44% | 1018.4 hPa | 0 mm | - | 781 W/m² | - |
| 1788021800 | 35.56° C | 45% | 1018.3 hPa | 0 mm | - | 769 W/m² | - |
| 1788021488 | 35° C | 47% | 1018.3 hPa | 0 mm | - | 758 W/m² | - |
| 1788021188 | 35° C | 47% | 1018.3 hPa | 0 mm | - | 749 W/m² | - |
| 1788020883 | 34.44° C | 49% | 1018.2 hPa | 0 mm | - | 739 W/m² | - |
| 1788020577 | 34.44° C | 47% | 1018.1 hPa | 0 mm | - | 728 W/m² | - |
| 1788020274 | 33.89° C | 52% | 1018.4 hPa | 0 mm | - | 718 W/m² | - |
| 1788019981 | 33.89° C | 49% | 1018.3 hPa | 0 mm | - | 705 W/m² | - |
| 1788019669 | 33.89° C | 50% | 1018.2 hPa | 0 mm | - | 692 W/m² | - |
| 1788019368 | 33.89° C | 51% | 1018.2 hPa | 0 mm | - | 679 W/m² | - |
| 1788019062 | 33.33° C | 52% | 1018.2 hPa | 0 mm | - | 667 W/m² | - |
| 1788018762 | 32.22° C | 55% | 1018.2 hPa | 0 mm | - | 652 W/m² | - |
* Rain latest hour (hover to see other rain measurements)
** Current wind speed in m/s (hover to see current wind gust speed)